IU2RPR-3 Weather Reports


time (UTC)temp
C
wind
direction
speed
KPH
gust
KPH
rain 1hr
cm
rain 24hr
cm
rain mn
cm
humidity
%
barometer
mb
20260506234319 12 0.0 0.0 0.00 0.00 0.00 87 1014.0
20260506231314 12 0.0 0.0 0.00 0.00 0.00 87 1013.9
20260506224310 12 0.0 0.0 0.00 0.00 0.00 85 1013.8
20260506221306 12 0.0 0.0 0.00 0.00 0.00 87 1013.8
20260506214301 12 0.0 0.0 0.00 0.00 0.00 86 1013.6
20260506211257 12 0.0 0.0 0.00 0.00 0.00 81 1013.8
20260506204253 12 0.0 0.0 0.00 0.00 0.00 79 1013.6
20260506201249 12 0.0 0.0 0.00 0.00 0.00 78 1013.5
20260506194244 12 0.0 0.0 0.00 0.00 0.00 80 1013.3
20260506191240 12 0.0 0.0 0.00 0.00 0.00 89 1012.7
20260506184236 12 0.0 0.0 0.00 0.00 0.00 88 1012.3
20260506181232 12 0.0 0.0 0.00 0.00 0.00 91 1011.8
20260506174230 11 0.0 0.0 0.00 0.00 0.00 91 1011.4
20260506171229 11 0.0 0.0 0.00 0.00 0.00 94 1011.3
20260506164228 13 0.0 0.0 0.00 0.00 0.00 80 1010.2
20260506162049 13 0.0 0.0 0.00 0.00 0.00 72 1010.5
20260506155048 18 0.0 0.0 0.00 0.00 0.00 76 1009.1
20260506152047 19 0.0 0.0 0.00 0.00 0.00 72 1009.0
20260506145046 19 0.0 0.0 0.00 0.00 0.00 73 1009.6
20260506142044 18 0.0 0.0 0.00 0.00 0.00 79 1010.0
20260506135043 20 0.0 0.0 0.00 0.00 0.00 70 1010.5
20260506132042 20 0.0 0.0 0.00 0.00 0.00 71 1010.8
20260506125041 20 0.0 0.0 0.00 0.00 0.00 76 1011.0
20260506122040 17 0.0 0.0 0.00 0.00 0.00 85 1011.4
20260506115038 16 0.0 0.0 0.00 0.00 0.00 83 1011.5
20260506112036 17 0.0 0.0 0.00 0.00 0.00 81 1011.6
20260506105035 17 0.0 0.0 0.00 0.00 0.00 86 1011.8
20260506102034 16 0.0 0.0 0.00 0.00 0.00 93 1012.1
20260506095033 15 0.0 0.0 0.00 0.00 0.00 95 1012.1
20260506092031 13 0.0 0.0 0.00 0.00 0.00 97 1012.1
20260506085030 13 0.0 0.0 0.00 0.00 0.00 98 1011.7
20260506082029 14 0.0 0.0 0.00 0.00 0.00 97 1012.0
20260506072026 13 0.0 0.0 0.00 0.00 0.00 99 1012.1
20260506062024 13 0.0 0.0 0.00 0.00 0.00 99 1012.7
20260506045020 12 0.0 0.0 0.00 0.00 0.00 99 1012.8
20260506042019 13 0.0 0.0 0.00 0.00 0.00 99 1013.1
20260506035018 13 0.0 0.0 0.00 0.00 0.00 99 1012.9
20260506032017 13 0.0 0.0 0.00 0.00 0.00 99 1012.9
20260506025015 13 0.0 0.0 0.00 0.00 0.00 99 1013.5
20260506022014 13 0.0 0.0 0.00 0.00 0.00 99 1013.8
20260506015013 13 0.0 0.0 0.00 0.00 0.00 99 1013.9
20260506012012 13 0.0 0.0 0.00 0.00 0.00 99 1014.0
20260506005011 13 0.0 0.0 0.00 0.00 0.00 99 1014.4
20260506002009 13 0.0 0.0 0.00 0.00 0.00 99 1014.6